Date String (YYYY-MM-DD hh:mm:ss) UTC,Instrument flags,Ambient pressure (hPa),Sample flow (lpm),Bypass flow (lpm),Sample temperature (°C),Ambient temperature (°C),ASC tube jacket temperature (°C),LED temperature (°C),Box temperature (°C),Sample RH (%),Span deviation,Mass concentration (μg/m³),Mass concentration (μg/m³),Mass concentration (μg/m³)
DateTimeUTC,F1_M11,P_M11,Q1_M11,Q2_M11,T1_M11,T2_M11,T3_M11,T4_M11,T5_M11,U1_M11,ZSPAN_M11,X0_M11,X2_M11,X1_M11
2023-05-18 20:00:00,,0830.1,4.99,0.00,29.7,28.0,00.0,38.0,31.1,30.3,0002.9,0013.01,0008.28,0007.45
2023-05-18 20:01:00,,0830.1,5.01,0.00,29.7,28.0,00.0,38.0,31.1,30.4,0002.6,0012.92,0008.21,0007.38
2023-05-18 20:02:00,,0830.1,5.01,0.00,29.7,28.0,00.0,38.0,31.2,30.0,0002.2,0012.38,0008.18,0007.34
2023-05-18 20:03:00,,0830.1,4.99,0.00,29.7,28.0,00.0,38.0,31.2,30.5,0001.2,0012.35,0008.21,0007.33
2023-05-18 20:04:00,,0830.1,4.99,0.00,29.7,28.1,00.0,38.0,31.2,30.6,0000.7,0011.87,0008.25,0007.34
2023-05-18 20:05:00,,0830.1,5.00,0.00,29.7,28.1,00.0,38.1,31.2,31.1,0000.4,0012.38,0008.30,0007.39
2023-05-18 20:06:00,,0830.1,5.00,0.00,29.7,28.1,00.0,38.1,31.2,30.9,0000.6,0013.05,0008.39,0007.44
2023-05-18 20:07:00,,0830.1,5.00,0.00,29.7,28.1,00.0,38.1,31.2,31.2,0000.6,0013.54,0008.47,0007.48
2023-05-18 20:08:00,,0830.1,5.00,0.00,29.7,28.1,00.0,38.1,31.2,30.5,0000.6,0013.79,0008.56,0007.55
2023-05-18 20:09:00,,0830.1,4.99,0.00,29.7,28.1,00.0,38.1,31.2,31.1,0000.2,0014.08,0008.71,0007.62
2023-05-18 20:10:00,,0830.1,5.00,0.00,29.7,28.1,00.0,38.1,31.2,31.2,0000.0,0014.16,0008.75,0007.63
2023-05-18 20:11:00,,0830.1,5.00,0.00,29.7,28.1,00.0,38.1,31.2,30.9,0000.3,0014.24,0008.77,0007.63
2023-05-18 20:12:00,,0830.1,4.99,0.00,29.7,28.1,00.0,38.1,31.2,31.9,0000.4,0014.34,0008.76,0007.63
2023-05-18 20:13:00,,0830.1,5.01,0.00,29.7,28.0,00.0,38.1,31.3,30.8,0000.6,0014.42,0008.75,0007.65
2023-05-18 20:14:00,,0830.1,4.99,0.00,29.7,26.9,00.0,38.0,31.1,30.9,0001.1,0015.34,0008.77,0007.68
2023-05-18 20:15:00,,0830.2,5.01,0.00,29.7,25.7,00.0,37.9,30.9,31.4,0001.2,0016.23,0008.78,0007.74
2023-05-18 20:16:00,,0830.2,5.01,0.00,29.6,25.6,00.0,37.9,30.8,30.7,0001.1,0015.99,0008.79,0007.76
2023-05-18 20:17:00,,0830.2,5.01,0.00,29.5,25.8,00.0,37.9,30.8,30.1,0000.9,0015.42,0008.76,0007.75
2023-05-18 20:18:00,,0830.2,4.99,0.00,29.5,26.1,00.0,37.9,30.8,31.1,0001.1,0014.96,0008.73,0007.75
2023-05-18 20:19:00,,0830.2,4.99,0.00,29.5,26.5,00.0,37.9,30.9,30.9,0001.3,0014.72,0008.69,0007.75
2023-05-18 20:20:00,,0830.3,5.00,0.00,29.5,26.8,00.0,37.9,30.9,32.5,0001.4,0014.60,0008.62,0007.71
2023-05-18 20:21:00,,0830.3,5.00,0.00,29.4,27.0,00.0,37.8,30.9,30.2,0001.5,0014.61,0008.67,0007.79
2023-05-18 20:22:00,,0830.3,5.00,0.00,29.4,27.2,00.0,37.8,30.9,29.5,0001.1,0014.67,0008.73,0007.86
2023-05-18 20:23:00,,0830.3,4.99,0.00,29.4,27.3,00.0,37.8,30.9,30.0,0001.3,0014.60,0008.79,0007.90
2023-05-18 20:24:00,,0830.3,5.00,0.00,29.4,27.4,00.0,37.8,30.9,31.3,0001.2,0014.57,0008.80,0007.91
2023-05-18 20:25:00,,0830.4,5.00,0.00,29.4,27.5,00.0,37.8,30.9,30.3,0000.9,0014.00,0008.86,0007.99
2023-05-18 20:26:00,,0830.4,5.01,0.00,29.4,27.5,00.0,37.8,31.0,30.8,0000.7,0013.03,0008.92,0008.04
2023-05-18 20:27:00,,0830.4,4.99,0.00,29.4,27.6,00.0,37.8,31.0,31.5,0000.4,0013.19,0008.95,0008.07
2023-05-18 20:28:00,,0830.4,5.00,0.00,29.4,27.7,00.0,37.8,31.0,31.2,0000.1,0013.57,0009.09,0008.18
2023-05-18 20:29:00,,0830.4,5.01,0.00,29.4,27.8,00.0,37.8,31.0,31.1,0000.3,0013.95,0009.13,0008.25
2023-05-18 20:30:00,,0830.4,5.01,0.00,29.4,27.8,00.0,37.8,31.0,31.5,-000.0,0014.75,0009.09,0008.21
2023-05-18 20:31:00,,0830.4,4.99,0.00,29.4,27.9,00.0,37.8,31.0,30.1,0000.4,0015.13,0009.04,0008.16
2023-05-18 20:32:00,,0830.4,5.00,0.00,29.4,27.9,00.0,37.8,31.0,29.0,0000.7,0015.54,0008.92,0008.04
2023-05-18 20:33:00,,0830.4,5.01,0.00,29.5,27.9,00.0,37.8,31.0,28.0,0001.2,0015.47,0008.78,0007.87
2023-05-18 20:34:00,,0830.3,5.00,0.00,29.5,27.9,00.0,37.8,31.0,29.2,0001.2,0015.60,0008.67,0007.76
2023-05-18 20:35:00,,0830.4,4.98,0.00,29.5,27.9,00.0,37.8,31.0,29.1,0001.0,0015.62,0008.60,0007.67
2023-05-18 20:36:00,,0830.3,5.01,0.00,29.5,27.9,00.0,37.8,31.0,28.9,0001.0,0015.38,0008.45,0007.53
2023-05-18 20:37:00,,0830.3,5.00,0.00,29.5,27.9,00.0,37.8,31.1,29.0,0001.7,0014.96,0008.33,0007.43
2023-05-18 20:38:00,,0830.4,4.99,0.00,29.5,27.9,00.0,37.8,31.1,30.1,0002.2,0014.73,0008.24,0007.35
2023-05-18 20:39:00,,0830.4,4.99,0.00,29.5,27.9,00.0,37.8,31.1,29.9,0002.5,0014.34,0008.12,0007.24
2023-05-18 20:40:00,,0830.5,5.01,0.00,29.5,27.9,00.0,37.9,31.1,29.4,0002.6,0013.94,0008.05,0007.17
2023-05-18 20:41:00,,0830.4,5.01,0.00,29.5,28.0,00.0,37.9,31.1,29.5,0003.1,0013.26,0008.08,0007.21
2023-05-18 20:42:00,,0830.4,4.98,0.00,29.5,28.0,00.0,37.9,31.1,30.1,0002.8,0012.82,0008.11,0007.28
2023-05-18 20:43:00,,0830.5,5.00,0.00,29.5,28.0,00.0,37.9,31.1,30.4,0002.5,0012.89,0008.22,0007.37
2023-05-18 20:44:00,,0830.5,5.00,0.00,29.5,28.1,00.0,37.9,31.2,30.8,0002.5,0012.95,0008.31,0007.47
2023-05-18 20:45:00,,0830.4,5.00,0.00,29.5,28.1,00.0,37.9,31.2,30.6,0002.3,0013.00,0008.41,0007.55
2023-05-18 20:46:00,,0830.4,5.00,0.00,29.6,28.1,00.0,37.9,31.2,30.3,0001.9,0012.91,0008.45,0007.61
2023-05-18 20:47:00,,0830.4,5.01,0.00,29.6,28.2,00.0,37.9,31.2,29.3,0002.4,0013.23,0008.43,0007.60
2023-05-18 20:48:00,,0830.4,4.98,0.00,29.6,28.2,00.0,37.9,31.2,28.8,0002.4,0013.29,0008.36,0007.51
2023-05-18 20:49:00,,0830.4,5.01,0.00,29.6,28.2,00.0,37.9,31.2,27.1,0002.0,0013.09,0008.19,0007.35
2023-05-18 20:50:00,,0830.4,5.00,0.00,29.6,28.2,00.0,37.9,31.2,27.9,0002.2,0012.98,0008.03,0007.17
2023-05-18 20:51:00,,0830.4,4.99,0.00,29.6,28.2,00.0,38.0,31.3,28.3,0001.9,0012.81,0007.85,0006.99
2023-05-18 20:52:00,,0830.4,5.00,0.00,29.6,28.2,00.0,38.0,31.2,28.0,0001.1,0012.72,0007.73,0006.85
2023-05-18 20:53:00,,0830.4,5.01,0.00,29.6,28.2,00.0,38.0,31.2,27.6,0000.7,0013.15,0007.65,0006.75
2023-05-18 20:54:00,,0830.3,5.01,0.00,29.6,28.2,00.0,38.0,31.2,27.9,0000.9,0012.89,0007.55,0006.64
2023-05-18 20:55:00,,0830.4,5.00,0.00,29.6,28.2,00.0,38.0,31.3,27.0,0000.9,0012.68,0007.41,0006.50
2023-05-18 20:56:00,,0830.4,4.99,0.00,29.6,28.2,00.0,38.0,31.3,26.8,0000.1,0012.48,0007.26,0006.38
2023-05-18 20:57:00,,0830.4,4.99,0.00,29.6,28.2,00.0,38.0,31.3,26.6,0000.2,0012.79,0007.21,0006.29
2023-05-18 20:58:00,,0830.3,5.00,0.00,29.7,28.2,00.0,38.0,31.3,27.0,-000.4,0012.48,0007.17,0006.25
2023-05-18 20:59:00,,0830.3,5.00,0.00,29.7,28.2,00.0,38.0,31.3,27.0,-001.3,0012.43,0007.20,0006.25
